Flag Weather past 2 weeks in Güstrow, Mecklenburg-Western Pomerania, Germany

Now
55 °F

Fog.


Feels Like: 54 °F
Forecast: 48 / 62 °F
Wind: 6 mph from Southwest

Location: Laage

Current Time: Oct 31, 2014 at 2:08:05 PM

Latest Report: Oct 31, 2014 at 1:20 PM


Visibility: 3 mi

Pressure: 30.21 "Hg

Humidity: 88%

Dew point: 52 °F

Location of GüstrowLocation

Historic Weather in Güstrow — Graph

°F

Güstrow temperature yesterday

Maximum temperature yesterday: 52 °F (at 11:20 AM)
Minimum temperature yesterday: 36 °F (at 7:20 AM)
Average temperature yesterday: 43 °F

Past Weeks' High & Low Weather Summary

 TemperatureHumidityPressure
High70 °F (Oct 19, 2:20 PM)100% (Oct 17, 5:20 AM)30.30 "Hg (Oct 17, 5:20 AM)
Low36 °F (Oct 30, 7:20 AM)63% (Oct 20, 3:20 PM)29.39 "Hg (Oct 21, 9:20 PM)
Average51 °F91%30.01 "Hg
* Reported Oct 16 1:20 PM — Oct 31 12:20 PM, Güstrow, Weather by CustomWeather, © 2014

Note: Actual official high and low records may vary slightly from our data, if they occured in-between our weather recording intervals... More about our weather records

Advertising

Güstrow weather history for previous 24 hours

 ConditionsComfort  
Time TempWeatherWind HumidityBarometerVisibility
12:20 PM
Oct 31
55 °FFog.6 mph88%30.21 "Hg3 mi
11:20 AM54 °FFog.7 mph94%30.24 "Hg3 mi
10:48 AM52 °FFog.7 mph94%30.24 "Hg2 mi
10:20 AM52 °FFog.5 mph94%30.24 "Hg2 mi
9:20 AM50 °FFog.7 mph94%30.21 "Hg2 mi
8:20 AM48 °FFog.5 mph100%30.24 "Hg2 mi
7:20 AM48 °FFog.6 mph94%30.24 "Hg2 mi
6:20 AM48 °FFog.3 mph94%30.24 "Hg2 mi
5:20 AM48 °FFog.6 mph94%30.24 "Hg3 mi
4:20 AM46 °FPassing clouds.6 mph93%30.24 "Hg4 mi
3:20 AM46 °FPassing clouds.5 mph93%30.24 "HgN/A
2:20 AM46 °FPassing clouds.2 mph93%30.27 "HgN/A
1:20 AM46 °FPassing clouds.1 mph93%30.27 "HgN/A
12:20 AM45 °FPassing clouds.2 mph93%30.27 "HgN/A
11:20 PM
Oct 30
43 °FPassing clouds.3 mph100%30.27 "HgN/A
10:20 PM43 °FFog.2 mph93%30.30 "HgN/A
9:20 PM41 °FFog.6 mph100%30.27 "HgN/A
8:49 PM41 °FPassing clouds.No wind100%30.30 "Hg3 mi
8:20 PM41 °FPassing clouds.No wind93%30.27 "Hg1 mi
7:20 PM41 °FFog.No wind100%30.27 "Hg0 mi
6:20 PM43 °FFog.3 mph100%30.27 "Hg0 mi
5:20 PM45 °FPassing clouds.No wind93%30.27 "Hg1 mi
4:20 PM48 °FPartly sunny.No wind87%30.27 "HgN/A
3:20 PM50 °FPartly sunny.No wind88%30.27 "HgN/A
2:20 PM52 °FPartly sunny.No wind77%30.27 "HgN/A
Weather by CustomWeather, © 2014

See weather overviewHow to use our weather pages